Pagina principale
METAR-TAF:

METAR-TAF

Aeroporti :

Monte Argentario, Italia

latitudine: 42-23N, longitudine: 011-10E, altezza: 630 m

Osservazione

Il bollettino è stato emesso 41 minuti fa, alle 13:55 UTC
Vento 2 kt da direzioni variabili
Temperature 26°C
Umidità 58%
Pressione 1014 hPa

METAR: LIQO 131355Z AUTO VRB02KT //// 26/17 Q1014

Ora: 16:36 (14:36 UTC)


TAF: mancante

Osservazioni e previsioni meteorologiche di più di 4000 aeroporti (messaggi METAR e TAF).

Le stazioni disponibili sono rappresentate dai dischi gialli e rossi sulla carta.

Puntare il mouse per vedere il nome della stazione.

Clicca sopra per visualizzare le osservazioni e previsioni meteorologiche.

Per cambiare la mappa : fare clic sui pulsanti verdi con una croce nera per ingrandire, il pulsante verde con un trattino per diminuire, o sulla freccia verde per le mappe adiacenti.


METAR-TAF: